Location: Arbon
(43.0005°N, 0.7472°E)
Time: 10:46:26
(UTC+00:00)

SR - Pass Details

Date: 30 November 2020
Orbit: 575 x 880 km, 66.7° (Epoch: 21 January)

Event Time Altitude Azimuth Distance (km) Brightness Sun altitude
Rises 04:10:11 0° 315° (NW) 3,248 - -31.8°
Reaches altitude 10° 04:12:59 10° 301° (WNW) 2,369 - -31.3°
Maximum altitude 04:17:08 22° 252° (WSW) 1,718 - -30.6°
Drops below altitude 10° 04:21:27 10° 203° (SSW) 2,477 - -29.8°
Exits shadow 04:24:16 - 189° (S) 3,365 ? -29.3°
Sets 04:24:28 0° 189° (S) 3,437 ? -29.2°
